When you browse on this site, cookies collect data to enhance your experience and personalize the content and advertising you see.
Visit our Privacy Policy to learn more. By continuing to use the site, you agree to this use of cookies and data.
  • In Hungary
  • List of Countries
  • For 7 days
  • Water Temperature
  • Weather Map
  • News
  • Weather Widgets
  • user-avatar
    Login

    Hourly Weather Dasze

    Today, 8 December, Sunday

    Time Temperature Precipitation Wind Pressure Humidity
    00:00 +3°C° 0 mm 6 mps 738 mmHg 88%
    01:00 +2°C° 0 mm 6 mps 738 mmHg 89%
    02:00 +2°C° 0 mm 6 mps 739 mmHg 88%
    03:00 +2°C° 0 mm 6 mps 739 mmHg 89%
    04:00 +1°C° 0 mm 5 mps 739 mmHg 90%
    05:00 +1°C° 0 mm 5 mps 739 mmHg 91%
    06:00 +1°C° 0 mm 5 mps 739 mmHg 91%
    07:00 +3°C° 0 mm 4 mps 740 mmHg 91%
    08:00 +3°C° 0 mm 4 mps 740 mmHg 91%
    09:00 +2°C° 0 mm 5 mps 740 mmHg 90%
    10:00 +3°C° 0 mm 5 mps 740 mmHg 89%
    11:00 +3°C° 0 mm 6 mps 740 mmHg 88%
    12:00 +3°C° 0 mm 6 mps 739 mmHg 85%
    13:00 +4°C° 0 mm 6 mps 739 mmHg 81%
    14:00 +4°C° 0 mm 6 mps 739 mmHg 78%
    15:00 +4°C° 0 mm 7 mps 738 mmHg 78%
    16:00 +3°C° 0 mm 7 mps 738 mmHg 78%
    17:00 +3°C° 0 mm 7 mps 737 mmHg 78%
    18:00 +3°C° 0 mm 7 mps 737 mmHg 78%
    19:00 +3°C° 0 mm 7 mps 737 mmHg 78%
    20:00 +3°C° 0 mm 7 mps 736 mmHg 78%
    21:00 +3°C° 0 mm 7 mps 736 mmHg 78%
    22:00 +4°C° 0 mm 7 mps 735 mmHg 78%
    23:00 +4°C° 0 mm 7 mps 735 mmHg 78%

    Tomorrow, 9 December, Monday

    Time Temperature Precipitation Wind Pressure Humidity
    00:00 +4°C° 0.5 mm 7 mps 735 mmHg 81%
    01:00 +4°C° 0.5 mm 7 mps 735 mmHg 83%
    02:00 +4°C° 0.5 mm 7 mps 735 mmHg 86%
    03:00 +4°C° 0.1 mm 7 mps 734 mmHg 86%
    04:00 +4°C° 0.1 mm 6 mps 734 mmHg 86%
    05:00 +4°C° 0.1 mm 6 mps 734 mmHg 87%
    06:00 +4°C° 0.3 mm 6 mps 734 mmHg 86%
    07:00 +4°C° 0.3 mm 6 mps 734 mmHg 86%
    08:00 +4°C° 0.3 mm 6 mps 734 mmHg 85%
    09:00 +4°C° 0.2 mm 6 mps 735 mmHg 85%
    10:00 +4°C° 0.2 mm 6 mps 735 mmHg 85%
    11:00 +5°C° 0.2 mm 7 mps 735 mmHg 85%
    12:00 +5°C° 0.1 mm 6 mps 735 mmHg 84%
    13:00 +5°C° 0.1 mm 6 mps 735 mmHg 83%
    14:00 +6°C° 0.1 mm 5 mps 735 mmHg 82%
    15:00 +6°C° 0 mm 5 mps 735 mmHg 83%
    16:00 +5°C° 0 mm 4 mps 735 mmHg 83%
    17:00 +5°C° 0 mm 4 mps 735 mmHg 84%
    18:00 +5°C° 0 mm 4 mps 736 mmHg 84%
    19:00 +4°C° 0 mm 4 mps 736 mmHg 85%
    20:00 +4°C° 0 mm 4 mps 736 mmHg 86%
    21:00 +4°C° 0 mm 4 mps 736 mmHg 86%
    22:00 +3°C° 0 mm 4 mps 737 mmHg 85%
    23:00 +3°C° 0 mm 4 mps 737 mmHg 85%

    Day after tomorrow, 10 December, Tuesday

    Time Temperature Precipitation Wind Pressure Humidity
    00:00 +3°C° 0 mm 4 mps 737 mmHg 85%
    01:00 +3°C° 0 mm 4 mps 737 mmHg 86%
    02:00 +3°C° 0 mm 4 mps 737 mmHg 87%
    03:00 +1°C° 0 mm 4 mps 738 mmHg 87%
    04:00 +1°C° 0 mm 4 mps 738 mmHg 87%
    05:00 +1°C° 0 mm 4 mps 738 mmHg 87%
    06:00 +1°C° 0 mm 4 mps 739 mmHg 87%
    07:00 +3°C° 0 mm 4 mps 739 mmHg 87%
    08:00 +2°C° 0 mm 5 mps 740 mmHg 86%
    09:00 +2°C° 0 mm 5 mps 741 mmHg 86%
    10:00 +2°C° 0 mm 5 mps 741 mmHg 86%
    11:00 +3°C° 0 mm 5 mps 742 mmHg 85%
    12:00 +3°C° 0 mm 5 mps 742 mmHg 80%
    13:00 +3°C° 0 mm 5 mps 743 mmHg 75%
    14:00 +3°C° 0 mm 5 mps 743 mmHg 70%
    15:00 +3°C° 0 mm 4 mps 744 mmHg 70%
    16:00 +3°C° 0 mm 4 mps 744 mmHg 70%
    17:00 +3°C° 0 mm 3 mps 744 mmHg 71%
    18:00 +3°C° 0 mm 3 mps 745 mmHg 75%
    19:00 +2°C° 0 mm 3 mps 745 mmHg 78%
    20:00 +3°C° 0 mm 2 mps 746 mmHg 82%
    21:00 +3°C° 0 mm 2 mps 746 mmHg 84%
    22:00 +3°C° 0 mm 2 mps 746 mmHg 86%
    23:00 +3°C° 0 mm 1 mps 747 mmHg 88%

    11 December, Wednesday

    Time Temperature Precipitation Wind Pressure Humidity
    00:00 +3°C° 0 mm 1 mps 747 mmHg 89%
    01:00 +3°C° 0 mm 1 mps 747 mmHg 90%
    02:00 +2°C° 0 mm 1 mps 748 mmHg 92%
    03:00 +2°C° 0 mm 1 mps 748 mmHg 92%
    04:00 +2°C° 0 mm 1 mps 748 mmHg 92%
    05:00 +2°C° 0 mm 1 mps 748 mmHg 92%
    06:00 +2°C° 0 mm 1 mps 748 mmHg 92%
    07:00 +1°C° 0 mm 1 mps 748 mmHg 93%
    08:00 +1°C° 0 mm 1 mps 748 mmHg 93%
    09:00 +1°C° 0 mm 2 mps 748 mmHg 90%
    10:00 +1°C° 0 mm 2 mps 748 mmHg 86%
    11:00 +1°C° 0 mm 3 mps 749 mmHg 83%
    12:00 +1°C° 0 mm 3 mps 748 mmHg 81%
    13:00 +2°C° 0 mm 3 mps 748 mmHg 79%
    14:00 +1°C° 0 mm 4 mps 747 mmHg 78%
    15:00 0°C° 0 mm 4 mps 747 mmHg 79%
    16:00 0°C° 0 mm 4 mps 747 mmHg 79%
    17:00 0°C° 0 mm 4 mps 747 mmHg 80%
    18:00 0°C° 0 mm 4 mps 746 mmHg 81%
    19:00 -1°C° 0 mm 4 mps 746 mmHg 81%
    20:00 -1°C° 0 mm 4 mps 746 mmHg 81%
    21:00 -1°C° 0 mm 4 mps 746 mmHg 83%
    22:00 -1°C° 0 mm 4 mps 745 mmHg 85%
    23:00 -1°C° 0 mm 4 mps 745 mmHg 87%

    12 December, Thursday

    Time Temperature Precipitation Wind Pressure Humidity
    00:00 -2°C° 0 mm 4 mps 745 mmHg 88%
    01:00 -2°C° 0 mm 4 mps 744 mmHg 89%
    02:00 -2°C° 0 mm 5 mps 744 mmHg 91%
    03:00 -2°C° 0 mm 5 mps 743 mmHg 91%
    04:00 -2°C° 0 mm 5 mps 742 mmHg 92%
    05:00 -2°C° 0 mm 5 mps 742 mmHg 93%
    06:00 -2°C° 0 mm 5 mps 742 mmHg 93%
    07:00 -1°C° 0 mm 5 mps 742 mmHg 93%
    08:00 -1°C° 0 mm 5 mps 741 mmHg 93%
    09:00 -1°C° 0 mm 5 mps 742 mmHg 91%
    10:00 0°C° 0 mm 5 mps 742 mmHg 88%
    11:00 0°C° 0 mm 5 mps 742 mmHg 85%
    12:00 0°C° 0 mm 5 mps 742 mmHg 82%
    13:00 0°C° 0 mm 4 mps 742 mmHg 79%
    14:00 0°C° 0 mm 4 mps 741 mmHg 76%
    15:00 0°C° 0 mm 4 mps 741 mmHg 79%
    16:00 +1°C° 0 mm 3 mps 741 mmHg 81%
    17:00 0°C° 0 mm 3 mps 741 mmHg 83%
    18:00 0°C° 0 mm 3 mps 741 mmHg 86%
    19:00 0°C° 0 mm 3 mps 741 mmHg 89%
    20:00 -1°C° 0 mm 3 mps 741 mmHg 91%
    21:00 -1°C° 0 mm 3 mps 741 mmHg 90%
    22:00 -1°C° 0 mm 3 mps 741 mmHg 90%
    23:00 -1°C° 0 mm 3 mps 741 mmHg 89%

    13 December, Friday

    Time Temperature Precipitation Wind Pressure Humidity
    00:00 -1°C° 0 mm 3 mps 741 mmHg 90%
    01:00 -1°C° 0 mm 3 mps 741 mmHg 90%
    02:00 -1°C° 0 mm 3 mps 740 mmHg 91%
    03:00 -2°C° 0 mm 3 mps 740 mmHg 92%
    04:00 -2°C° 0 mm 3 mps 739 mmHg 92%
    05:00 -2°C° 0 mm 3 mps 739 mmHg 92%
    06:00 -3°C° 0 mm 4 mps 738 mmHg 92%
    07:00 -3°C° 0 mm 4 mps 738 mmHg 91%
    08:00 -4°C° 0 mm 5 mps 737 mmHg 90%
    09:00 -3°C° 0 mm 6 mps 736 mmHg 87%
    10:00 -2°C° 0 mm 7 mps 736 mmHg 83%
    11:00 -1°C° 0 mm 8 mps 735 mmHg 79%
    12:00 0°C° 0 mm 8 mps 734 mmHg 76%
    13:00 +1°C° 0 mm 8 mps 733 mmHg 73%
    14:00 +1°C° 0 mm 9 mps 732 mmHg 70%
    15:00 +1°C° 0 mm 8 mps 731 mmHg 71%
    16:00 0°C° 0 mm 8 mps 731 mmHg 72%
    17:00 0°C° 0 mm 8 mps 730 mmHg 73%
    18:00 0°C° 0.1 mm 8 mps 730 mmHg 78%
    19:00 -1°C° 0.1 mm 8 mps 730 mmHg 82%
    20:00 -1°C° 0.1 mm 8 mps 730 mmHg 87%
    21:00 -2°C° 0.4 mm 7 mps 730 mmHg 90%
    22:00 -2°C° 0.4 mm 7 mps 730 mmHg 92%
    23:00 -2°C° 0.4 mm 7 mps 730 mmHg 95%
    Show more